Location: Nassau
(25.0830°N, 77.3500°W)
Time: 09:24:36
(UTC-04:00)

ISS - All Passes

Search period start: 22 July 2014 00:00
Search period end: 01 August 2014 00:00
Orbit: 413 x 420 km, 51.6° (Epoch: 22 July)

Date Brightness Start Highest point End Pass type
(mag) Time Alt. Az. Time Alt. Az. Time Alt. Az.
22 Jul - 01:18:32 10° SSW 01:21:45 48° SE 01:24:59 10° NE night (unlit)
22 Jul - 02:57:56 10° NW 02:58:39 11° NW 02:59:23 10° NNW visible
22 Jul - 09:31:30 10° N 09:33:30 15° NE 09:35:29 10° ENE daylight
22 Jul - 11:07:16 10° WNW 11:10:15 30° SW 11:13:14 10° S daylight
23 Jul - 00:30:42 10° S 00:33:21 22° SE 00:36:01 10° ENE night (unlit)
23 Jul - 02:07:33 10° W 02:10:00 19° NW 02:12:27 10° N night (unlit)
23 Jul - 10:18:30 10° NW 10:21:50 71° SW 10:25:09 10° SE daylight
23 Jul - 23:44:10 10° SE 23:45:00 11° SE 23:45:49 10° ESE night (unlit)
24 Jul - 01:18:19 10° WSW 01:21:24 36° NW 01:24:31 10° NNE night (unlit)
24 Jul - 09:30:04 10° NNW 09:33:20 50° NE 09:36:35 10° SE daylight
25 Jul - 00:29:34 10° SW 00:32:53 81° NW 00:36:14 10° NE night (unlit)
25 Jul - 08:41:58 10° NNW 08:44:47 24° NE 08:47:35 10° E daylight
25 Jul - 10:19:08 10° W 10:21:19 16° SW 10:23:31 10° SSW daylight
25 Jul - 23:41:16 10° SSW 23:44:26 42° SE 23:47:37 10° NE night (unlit)
26 Jul - 01:20:06 10° WNW 01:21:18 12° NW 01:22:30 10° NNW night (unlit)
26 Jul - 07:54:22 10° N 07:56:08 14° NE 07:57:54 10° ENE daylight
26 Jul - 09:29:51 10° WNW 09:32:56 34° SW 09:36:00 10° SSE daylight
26 Jul - 22:53:32 10° S 22:56:02 20° SE 22:58:32 10° ENE night (unlit)
27 Jul - 00:30:04 10° W 00:32:38 21° NW 00:35:13 10° N night (unlit)
27 Jul - 08:41:08 10° NW 08:44:29 80° SW 08:47:49 10° SE daylight
27 Jul - 23:40:54 10° WSW 23:44:03 40° NW 23:47:13 10° NNE night (unlit)
28 Jul - 07:52:44 10° NNW 07:55:58 44° NE 07:59:11 10° ESE daylight
28 Jul - 22:52:12 10° SW 22:55:31 89° SE 22:58:51 10° NE night (unlit)
29 Jul - 07:04:41 10° N 07:07:23 22° NE 07:10:05 10° E daylight
29 Jul - 08:41:34 10° W 08:43:58 18° SW 08:46:21 10° S daylight
29 Jul - 22:03:58 10° SSW 22:07:03 37° SE 22:10:10 10° ENE night (unlit)
29 Jul - 23:42:22 10° WNW 23:43:53 13° NW 23:45:24 10° NNW night (unlit)
30 Jul - 06:17:13 10° NNE 06:18:43 12° NE 06:20:13 10° ENE daylight
30 Jul - 07:52:24 10° WNW 07:55:33 39° SW 07:58:41 10° SSE daylight
30 Jul - 21:16:20 10° S 21:18:39 18° SE 21:20:58 10° E night (unlit)
30 Jul - 22:52:31 10° W 22:55:12 22° NW 22:57:55 10° N night (unlit)
31 Jul - 07:03:43 10° NW 07:07:04 89° NE 07:10:25 10° SE daylight
31 Jul - 22:03:25 10° WSW 22:06:37 45° NW 22:09:50 10° NNE visible
